Terug naar catalogus

FALCON 9 R/B

ActiefHEO
NORAD 54226·ROCKET BODY·🇺🇸 United States

Gelanceerd Nov 3, 2022 vanaf Cape Canaveral Space Force Station

Loading…

Volgende Passages (komende 24 uur)

TLE

VersSource: Space-Track

Epoch: Sep 13, 2026, 04:01 UTC

1 54226U 22146B   26256.16799113 -.00000249  00000-0  50537-3 0  9991
2 54226  27.0831  33.1033 7979135 292.9912   5.9517  1.39827313 18935

Volg FALCON 9 R/B in realtime met AllMySat

Download on the App Store